Вернуться в каталог

SCOUT B DEB

LostUNKNOWN
NORAD 29173·DEBRIS·🇺🇸 United States

Запущен Aug 10, 1965 с Wallops Flight Facility

Loading…

Ближайшие Пролёты (ближайшие 24 часа)

TLE

УстаревшееSource: Space-Track

Эпоха: Apr 8, 2014, 00:09 UTC

1 29173U 65063X   14098.00683139  .00000094  00000-0  87837-3 0  9993
2 29173  69.2635 311.7270 0746991   2.1560  61.8794 11.84753377399143

Отслеживайте SCOUT B DEB в реальном времени с AllMySat

Download on the App Store